SCP
1 1 1 1 1 0 1 1 1 0 0 0 0 0 0 0 0 0 0 0 0 0 1 1 1 1 1 1 1 0 0 0 1 1 1 1 1 1 1 1 1 1 1 1 1 1 1 0 0
1 1 1 1 1 0 1 1 1 0 0 0 0 0 0 0 0 0 0 0 0 0 1 1 1 1 1 1 0 0 0 0 0 1 1 1 1 1 1 0 1 1 1 1 1 1 1 0 0
1 1 1 1 1 1 1 1 1 1 0 0 0 0 0 0 0 0 0 0 0 0 0 0 0 0 0 0 0 0 0 0 0 0 0 1 1 1 1 0 1 1 1 1 1 1 0 0 0
1 2 1 1 1 1 1 1 1 1 0 0 0 0 0 0 0 0 1 1 0 0 0 0 0 0 0 0 0 0 0 0 0 0 0 0 1 1 1 1 1 1 1 1 1 1 1 1 1
1 1 1 0 0 1 1 1 1 1 1 0 0 0 0 0 1 1 1 1 1 0 0 1 1 1 0 0 0 0 0 0 0 0 1 1 1 1 1 1 1 1 1 1 1 1 1 1 1
0 0 0 0 0 1 1 1 1 1 1 0 0 0 0 0 1 1 1 1 1 1 1 1 1 1 0 0 0 0 0 0 0 1 1 1 1 1 1 2 2 2 1 1 1 1 1 1 1
0 0 0 0 0 1 1 1 1 1 1 1 0 0 0 0 1 1 1 1 1 1 1 1 1 1 0 0 1 1 1 1 1 1 1 1 1 1 1 2 2 1 1 1 1 1 1 1 1
0 0 0 0 0 0 1 1 1 1 1 1 1 0 0 0 1 2 2 2 2 1 1 1 1 1 0 0 1 1 1 1 1 1 1 1 1 1 1 2 2 1 1 1 1 1 1 1 1
0 0 0 0 0 0 1 1 1 1 1 1 1 1 1 1 1 3 4 3 3 2 1 1 0 0 0 0 0 1 1 1 1 1 1 1 1 1 1 1 1 1 1 1 1 1 1 1 1
0 0 0 0 0 0 1 1 1 1 1 1 1 1 1 1 1 3 4 4 3 2 2 1 1 1 1 0 0 0 0 1 1 1 1 1 1 1 1 1 1 1 1 1 1 1 1 1 1
0 0 0 0 0 0 1 1 1 1 1 1 1 1 1 1 1 2 3 3 3 2 2 1 1 1 1 0 0 0 0 0 1 1 1 1 1 1 1 1 1 1 1 1 1 1 1 1 1
0 0 0 0 0 1 1 1 1 1 1 1 1 1 1 1 1 1 2 3 3 3 2 1 1 1 1 1 1 1 1 1 0 0 0 0 1 1 1 1 1 1 1 1 1 1 1 1 1
0 0 0 0 0 1 2 2 2 1 1 1 1 1 1 1 1 1 2 2 3 3 2 2 1 1 1 1 1 1 1 1 1 1 1 1 0 0 1 1 1 1 1 1 1 1 1 1 0
0 0 0 0 1 1 2 2 2 1 1 1 1 1 1 1 1 2 2 3 3 3 3 2 2 1 1 1 1 1 1 1 1 1 1 1 1 1 1 1 1 1 1 1 1 1 1 0 0
0 0 0 0 0 1 2 2 2 1 1 1 1 1 1 1 2 2 3 3 3 4 3 3 2 2 1 1 1 1 1 1 1 1 1 1 1 1 1 1 1 1 1 1 1 1 0 0 0
0 0 0 0 1 1 2 2 1 1 1 1 1 1 1 2 2 3 3 4 4 4 4 3 3 2 1 1 1 1 1 1 1 1 1 1 1 1 1 1 1 1 1 1 1 0 0 0 0
0 0 1 1 1 1 1 1 1 1 1 1 1 1 1 1 2 3 4 4 4 5 5 4 3 3 2 2 1 1 1 1 1 1 1 1 1 1 1 1 1 1 2 1 1 0 0 0 0
0 0 1 1 1 1 1 1 1 1 1 1 1 1 1 1 2 3 4 5 5 5 5 5 5 4 3 2 2 1 2 2 1 1 1 1 1 1 1 1 1 2 2 1 1 1 0 0 0
0 0 1 1 1 1 1 1 1 1 1 1 1 1 1 1 2 3 4 5 6 6 6 6 5 5 4 3 2 2 1 1 1 1 1 1 1 1 2 1 1 2 2 1 1 1 1 1 1
0 1 1 1 1 1 1 1 1 1 1 1 1 1 1 2 2 2 3 5 6 6 5 5 5 4 4 3 3 2 1 1 1 1 2 2 2 2 2 2 2 2 1 1 1 1 1 1 1
0 1 1 2 1 1 1 1 1 2 2 2 2 2 2 2 2 2 3 4 6 6 5 4 4 3 3 2 2 2 2 1 1 1 2 2 2 2 2 2 2 1 1 1 1 1 1 1 1
0 1 1 1 1 1 1 1 1 2 2 2 3 2 2 2 1 2 3 4 5 5 4 4 3 2 2 2 2 2 2 1 1 2 2 2 2 2 2 2 2 1 1 1 1 1 1 1 1
0 1 1 1 1 1 1 1 1 2 2 3 3 3 3 2 2 2 2 3 4 4 3 3 3 2 2 2 2 2 2 2 2 2 2 2 2 2 2 2 2 2 2 1 1 1 1 1 1
0 0 0 0 0 1 1 1 1 2 2 3 5 5 4 3 3 2 2 2 3 3 3 2 2 3 3 3 3 2 2 2 2 2 2 2 2 2 2 2 2 2 2 1 1 2 2 1 1
0 0 0 0 0 0 1 1 1 2 2 3 5 6 5 5 4 4 3 3 2 3 3 3 3 3 3 3 3 3 2 2 2 3 2 2 2 2 2 2 2 2 2 2 2 3 4 2 1
0 0 0 0 0 0 0 1 1 2 2 3 4 6 6 6 5 5 4 3 3 3 3 3 3 3 3 3 3 3 3 3 3 3 3 2 2 2 2 2 2 2 2 2 2 3 2 1 1
0 0 0 0 0 0 1 1 2 2 3 3 4 4 5 6 6 5 4 3 3 3 3 3 4 4 4 4 3 3 3 4 4 3 3 2 2 2 3 3 2 2 3 3 3 2 1 1 1
0 0 0 0 0 0 1 1 2 3 3 4 4 3 4 6 7 6 5 4 4 4 4 4 5 5 5 5 4 4 3 4 4 4 3 3 3 3 3 3 3 3 3 4 3 2 1 1 1
0 0 0 0 0 0 1 1 2 3 3 4 4 5 6 7 7 7 6 6 6 6 6 6 6 6 7 7 6 4 4 3 4 4 3 3 3 4 4 4 4 3 3 3 3 2 1 1 1
0 0 0 0 0 0 1 1 2 2 3 4 5 7 8 8 8 7 8 9 9 8 8 7 7 7 7 7 6 5 4 3 3 3 3 3 3 4 4 4 4 4 3 3 2 2 2 2 1
Wind_Speed
2 3 3 2 6 6 6 6 8 9 8 10 12 12 11 9 7 7 3 7 8 6 5 9 12 13 13 14 14 15 16 16 15 16 15 16 16 16 16 16 16 17 16 16 16 16 16 15 15
2 3 2 4 6 6 5 8 13 13 12 12 13 14 11 10 9 9 5 7 8 7 5 8 12 13 14 14 14 15 15 15 15 15 16 16 16 16 16 16 16 16 16 16 16 16 15 15 15
3 2 4 5 4 6 6 9 14 14 11 9 8 8 7 6 8 6 7 10 8 6 5 7 13 13 14 14 14 14 15 15 15 15 16 16 16 15 16 16 15 15 15 15 15 15 14 14 14
2 3 5 6 6 6 10 11 15 15 11 10 10 8 6 6 6 10 12 11 10 6 5 8 13 13 13 14 14 14 14 15 15 15 15 15 15 15 15 15 14 14 14 14 14 14 13 12 12
3 5 6 5 6 8 10 13 13 12 8 11 12 10 6 6 13 15 13 12 10 6 4 7 13 13 13 13 13 13 14 14 14 14 14 14 14 15 14 14 13 13 13 13 13 12 12 11 10
4 5 6 5 6 8 9 13 16 17 16 13 12 10 5 8 13 13 12 10 9 8 5 6 12 12 12 12 12 13 14 14 14 14 13 13 13 13 13 13 12 12 12 12 11 10 10 9 8
6 5 5 6 6 7 10 11 14 15 14 9 9 8 6 7 10 12 11 10 8 8 6 4 5 8 11 13 12 14 14 13 13 13 12 12 12 12 11 11 11 11 10 10 9 8 7 6 5
5 6 5 5 7 7 9 10 12 14 11 12 8 8 7 8 11 12 11 9 8 6 5 4 4 4 5 6 11 12 12 12 12 11 11 10 10 10 10 8 8 9 8 7 7 6 5 4 4
5 6 4 5 8 7 10 13 8 9 11 6 5 8 11 13 14 12 9 7 6 7 4 4 4 4 4 5 8 8 10 10 10 8 9 7 3 3 4 6 7 7 6 5 4 4 3 3 3
6 6 7 7 9 11 12 14 9 9 11 9 11 11 12 12 13 12 10 9 7 7 5 4 5 5 4 5 4 3 3 4 3 3 3 2 2 1 3 4 5 4 4 3 2 2 2 2 1
5 7 6 7 10 12 11 10 7 12 9 13 17 15 13 12 10 10 8 8 8 8 7 6 6 5 5 3 3 2 1 2 2 3 3 2 1 1 1 1 1 1 1 0 1 1 0 1 1
6 6 8 8 10 11 10 9 8 8 11 14 16 15 12 12 10 9 8 7 7 7 6 6 6 5 5 4 3 3 2 2 2 3 3 2 2 2 1 1 1 0 0 0 0 0 1 1 1
6 5 7 10 11 11 13 11 11 10 14 14 14 13 12 11 9 8 8 8 7 6 6 5 6 6 5 5 3 4 3 3 3 3 3 3 3 2 2 1 1 1 1 1 1 1 0 0 1
3 6 8 9 11 12 17 11 9 12 15 14 13 11 11 11 10 8 8 7 7 6 6 5 6 6 5 4 3 3 3 3 3 3 3 4 3 3 2 1 1 1 1 1 1 1 1 0 1
4 7 6 4 8 9 15 9 10 15 15 14 12 11 11 10 10 11 10 9 8 7 6 5 5 5 5 4 3 3 2 3 3 3 3 4 3 3 2 2 1 0 0 0 0 1 1 0 0
4 5 3 2 5 6 11 8 9 14 15 13 12 12 11 9 10 10 10 9 8 8 7 5 5 5 4 3 3 2 2 3 2 2 3 3 4 4 2 2 1 1 0 1 0 0 1 1 0
3 2 3 3 4 6 7 8 11 11 14 13 11 11 11 9 8 8 10 10 9 9 7 6 5 5 4 4 3 3 2 2 2 2 2 3 3 4 3 2 1 1 1 1 1 1 0 1 1
3 2 2 4 4 6 7 7 12 12 13 12 11 10 11 11 10 10 10 10 9 8 7 7 6 5 4 3 2 2 2 2 2 2 2 3 3 3 3 2 2 1 1 0 0 0 0 1 1
4 2 3 4 6 6 7 8 11 12 11 11 10 10 11 10 9 10 10 10 9 8 7 7 7 5 4 2 2 2 2 1 1 2 3 3 3 3 3 2 2 2 1 1 1 0 1 1 0
2 1 1 1 4 5 5 4 7 10 12 13 13 12 12 10 9 10 9 9 9 9 8 7 7 6 5 3 3 2 2 2 2 1 2 3 3 3 3 3 2 2 1 1 0 0 0 1 0
3 4 4 4 3 5 6 1 2 5 5 7 9 10 11 14 14 13 11 10 9 9 9 8 7 6 5 4 3 2 1 1 1 1 1 2 3 3 3 3 3 2 2 2 1 1 1 1 1
4 4 5 6 6 2 4 3 5 5 6 9 10 10 11 12 12 12 12 11 11 10 9 7 7 6 5 5 4 4 3 3 3 2 2 2 3 3 3 3 3 3 2 2 2 2 1 1 1
5 4 5 5 4 2 1 4 5 3 7 11 12 13 13 12 13 14 13 13 12 11 9 8 7 6 6 5 6 5 4 3 2 2 2 2 2 3 3 3 3 3 2 2 2 1 1 1 1
3 5 6 6 5 0 4 5 5 6 12 12 11 11 12 13 13 12 11 10 9 9 9 8 8 7 6 6 6 6 6 4 3 3 3 2 2 2 3 3 3 3 2 3 2 2 1 1 1
5 8 5 4 3 5 4 3 7 8 10 11 12 11 11 12 12 11 11 10 10 10 10 9 9 8 7 7 6 6 6 6 5 4 4 3 2 2 3 3 3 3 3 3 2 2 1 1 1
4 11 10 6 5 4 1 4 6 5 7 8 9 10 10 10 11 12 13 12 12 11 10 10 10 8 7 7 6 5 5 4 3 4 4 4 3 3 3 3 3 3 3 3 2 1 2 1 1
4 5 10 8 3 1 2 2 4 1 2 5 7 7 9 9 11 11 12 11 11 11 11 11 10 8 7 7 6 5 5 5 4 4 3 3 3 3 3 3 3 3 3 2 2 1 1 1 1
7 7 6 6 5 1 3 2 3 2 2 4 6 7 7 8 9 10 10 11 10 10 9 9 9 8 7 6 6 5 5 5 4 3 3 3 3 3 3 3 3 3 2 2 2 1 1 1 0
3 4 6 5 6 7 3 5 5 7 6 6 5 5 6 6 7 8 7 7 7 7 7 7 7 6 6 6 5 5 4 4 4 4 4 4 3 3 3 3 3 3 2 2 2 2 1 1 0
6 6 8 6 3 5 5 6 4 5 6 6 6 5 6 6 5 6 7 6 6 6 7 7 6 6 6 6 5 5 4 4 3 3 3 3 3 2 2 2 3 3 2 2 3 2 1 2 1
Wind_Direction
201 175 150 80 56 58 75 86 95 83 65 62 72 77 75 60 83 111 145 121 110 98 85 88 89 88 89 92 92 90 91 93 96 99 99 101 103 104 105 108 109 111 111 110 109 109 110 111 113
178 162 99 63 79 83 75 94 89 93 113 105 80 78 74 69 84 109 122 121 113 106 95 98 96 92 92 93 93 93 94 95 97 100 99 100 101 103 104 107 110 111 111 111 110 111 111 111 112
188 150 90 74 93 116 112 105 104 103 100 92 85 63 65 89 101 115 132 127 108 96 94 104 103 100 98 97 96 97 98 100 100 101 101 100 101 103 104 108 111 111 113 112 111 111 110 111 111
125 60 58 76 97 116 123 121 114 106 81 76 90 74 62 85 101 125 131 123 109 97 95 106 106 104 103 102 100 101 103 104 103 103 102 102 103 106 107 108 110 110 112 113 112 112 112 111 111
74 77 66 73 88 105 115 120 115 102 88 89 93 97 83 83 114 125 127 122 117 106 98 107 110 109 108 107 106 109 109 107 107 106 104 104 103 105 109 110 111 112 112 111 112 114 112 110 112
68 72 84 92 93 107 113 113 105 102 108 106 104 104 106 123 125 131 128 125 124 119 107 110 116 116 113 110 111 117 115 112 111 109 109 109 107 106 108 109 109 109 108 111 113 113 112 110 108
112 98 115 124 116 115 124 121 116 122 124 123 122 104 123 137 134 134 132 127 124 121 115 104 114 117 117 116 114 119 119 118 117 115 116 115 114 113 113 111 111 112 112 114 116 116 114 109 104
133 105 102 120 124 121 128 117 122 126 117 129 124 122 145 153 137 131 128 127 128 126 125 121 117 111 115 118 121 122 122 123 124 121 120 119 120 118 118 118 119 118 119 120 121 123 123 111 101
103 91 131 155 137 133 125 112 110 102 116 126 103 124 141 139 131 127 124 124 133 134 137 139 137 131 130 132 132 129 129 128 125 123 124 118 104 106 118 131 130 129 130 133 135 135 128 102 93
105 124 178 169 144 136 127 123 124 111 109 104 109 118 127 130 133 135 140 146 151 152 158 158 158 159 154 144 129 130 134 129 126 126 128 121 124 136 136 137 145 145 150 155 160 161 132 102 106
120 142 151 134 134 129 128 123 110 122 129 144 142 143 140 135 135 137 142 146 153 160 165 169 170 168 162 145 143 143 138 138 147 154 155 144 129 125 118 105 120 123 149 78 61 61 126 165 173
114 136 136 136 131 128 132 125 113 125 148 150 145 144 142 141 143 145 144 145 145 146 154 159 156 155 162 154 153 158 155 159 167 172 167 149 137 138 151 149 157 147 158 117 20 290 289 227 187
103 127 122 127 123 125 117 115 113 122 135 141 142 143 147 147 149 151 149 148 143 143 147 146 140 144 146 143 158 155 166 166 169 170 168 156 145 149 151 167 170 193 199 188 200 240 254 146 148
138 117 112 119 118 123 118 116 109 137 142 146 150 152 154 154 155 148 145 147 146 144 146 141 134 140 135 136 146 150 155 156 154 163 170 160 150 148 148 155 154 166 184 186 179 183 175 191 158
103 98 86 109 112 125 112 103 136 150 150 153 160 160 159 160 158 157 160 159 153 148 142 140 135 130 128 132 140 138 150 150 152 163 167 155 154 154 149 150 142 203 182 134 72 50 44 37 140
71 89 112 216 128 138 112 138 161 157 155 160 166 165 162 166 165 163 158 152 149 144 144 150 144 129 136 142 137 139 145 144 156 155 156 159 158 158 153 151 180 222 139 100 91 44 33 350 293
23 123 165 187 162 137 114 150 170 169 162 167 172 168 163 163 164 160 156 155 154 152 152 153 143 149 154 153 147 143 140 149 163 159 164 169 164 164 158 169 191 177 134 141 165 99 170 248 282
234 182 182 181 179 133 125 153 167 173 172 173 173 168 167 169 170 165 159 157 157 156 156 153 155 163 157 145 125 116 122 157 166 168 173 166 170 163 152 163 178 154 129 118 58 92 317 234 251
200 186 203 199 157 124 136 152 173 174 175 175 175 175 175 176 170 163 160 159 156 156 156 158 161 169 155 139 138 143 169 179 185 190 178 169 171 163 156 168 168 156 157 183 184 134 360 315 310
220 176 178 130 129 118 140 162 180 179 183 180 178 178 175 169 165 167 165 165 165 166 165 163 169 171 169 166 166 170 174 184 188 194 178 180 180 180 176 175 182 176 163 175 181 130 74 310 94
251 179 171 152 68 74 106 42 196 195 176 177 181 178 175 175 174 173 173 174 172 172 173 175 177 173 175 169 151 143 114 100 139 174 206 206 188 187 184 187 190 187 177 196 217 195 165 252 301
244 205 151 140 117 197 149 172 254 194 188 189 191 181 183 181 177 176 175 177 179 179 175 172 174 175 178 166 159 166 178 197 204 198 203 215 206 197 193 196 193 189 187 199 222 210 183 160 287
218 178 137 133 128 99 122 136 261 173 192 205 197 188 186 184 181 182 183 182 181 178 176 177 175 179 181 177 177 179 191 199 203 194 195 213 222 212 204 198 191 194 193 201 214 205 185 169 184
171 74 51 58 72 47 221 151 246 205 200 199 198 189 186 183 183 184 183 176 178 177 178 179 178 186 187 185 184 186 193 193 192 201 198 209 218 230 226 207 195 194 197 204 209 203 198 204 198
106 93 49 13 18 249 236 156 238 223 198 185 185 187 189 182 178 175 175 175 177 179 182 182 182 189 190 189 191 195 195 189 192 199 199 201 209 221 235 220 202 199 205 203 201 192 204 197 190
168 137 152 177 206 261 310 199 250 229 190 177 175 175 176 174 178 182 182 180 181 181 180 181 185 189 188 190 196 195 190 189 196 197 192 199 206 216 218 211 203 201 204 208 190 186 203 185 195
154 166 163 139 160 113 287 279 319 358 122 156 156 156 174 179 181 185 185 181 182 182 183 183 184 185 187 188 186 185 183 188 196 194 190 195 202 208 205 201 197 198 197 196 171 164 194 154 163
160 154 102 116 141 184 286 249 226 225 185 167 163 167 172 177 181 183 184 183 183 181 182 181 179 182 183 185 187 191 192 194 192 184 191 194 196 197 191 200 199 195 195 190 163 149 163 133 184
143 117 112 123 147 149 193 267 226 186 184 170 160 158 157 157 170 171 171 173 169 165 168 170 174 172 175 182 185 185 189 194 191 192 199 198 198 191 191 188 189 187 183 177 154 156 161 157 12
162 165 140 144 181 147 152 256 271 165 155 145 133 124 122 120 133 143 143 137 145 154 154 155 161 165 174 176 175 180 183 188 191 195 199 191 191 190 188 174 168 172 165 151 144 143 147 147 146